GFSFLT2_sfc_thetae_132.txt.gz
Theta_e
326 329 329 329 328 328 327 327 327 328 327 327 325 325 324 324 324 325 324 323 322 322 322 320 320 319 318 318 314 313 313 313
325 325 325 325 326 325 324 324 326 325 324 323 322 323 324 324 324 324 324 324 323 321 321 319 316 309 308 308 309 308 308 310
321 320 320 321 320 320 322 322 323 323 322 322 321 322 322 322 321 321 322 321 320 319 317 315 309 302 299 299 302 304 304 306
316 316 316 316 317 317 319 319 319 320 318 318 318 318 318 319 319 319 317 315 315 315 313 310 304 298 296 297 298 299 303 306
311 311 312 313 314 315 315 316 316 315 314 314 314 314 314 315 315 313 312 312 313 312 311 306 300 297 294 294 296 298 304 307
309 310 311 313 314 314 313 313 311 311 311 311 312 312 312 312 311 310 310 312 310 308 306 303 300 295 293 293 294 303 305 304
308 309 310 310 309 310 309 309 309 308 308 310 310 310 310 309 308 307 308 308 308 306 305 304 300 294 292 292 294 299 299 299
307 307 307 307 308 308 307 306 306 306 307 308 309 309 308 306 307 306 307 307 305 305 304 304 300 296 291 291 292 294 292 293
308 308 306 306 307 306 304 304 304 305 307 306 306 307 305 306 307 307 306 306 305 304 303 304 302 297 291 291 291 291 289 290
304 304 304 306 307 306 304 303 306 306 306 305 305 306 304 305 305 304 302 302 307 306 305 302 301 294 293 291 291 291 292 289
303 302 303 303 305 306 304 305 306 306 305 304 305 305 305 303 298 295 294 296 296 296 297 297 296 294 291 291 291 291 293 291
302 302 301 301 303 304 304 305 306 305 303 303 305 302 300 300 297 293 291 290 291 290 292 291 290 289 288 288 289 291 292 292
300 300 299 300 303 303 304 305 305 304 305 304 304 302 301 297 293 294 289 287 287 286 288 289 287 286 286 287 287 288 289 290
299 300 300 301 302 303 304 305 306 304 302 301 301 301 301 296 293 288 287 287 287 287 287 287 290 288 287 288 288 288 288 289
299 298 300 300 300 300 301 302 304 303 302 301 300 299 298 298 297 293 287 286 286 286 286 287 287 286 288 288 288 288 290 291
299 299 299 299 298 298 300 299 300 300 300 295 298 298 297 296 296 296 295 294 290 289 288 287 289 289 288 288 288 292 292 292
299 298 297 297 297 297 300 300 298 299 298 297 296 296 295 295 296 295 295 294 294 292 290 290 291 291 291 290 291 292 291 290
297 296 297 296 297 298 298 297 296 295 295 292 295 296 295 295 295 294 293 294 293 292 289 289 291 292 291 291 292 291 291 290
298 297 297 297 296 298 297 298 298 296 295 295 292 295 294 294 294 293 293 292 292 291 291 290 284 291 290 291 291 290 290 290
296 296 296 296 298 297 297 296 298 296 295 294 294 293 293 292 293 293 293 292 291 291 291 291 286 291 291 291 291 291 291 291

GFSFLT2_sfc_thetae_135.txt.gz
Theta_e
325 325 327 328 328 327 326 324 324 324 323 321 320 318 317 316 316 315 314 313 313 314 314 308 306 305 304 304 304 304 303 304
324 325 326 326 326 323 323 322 323 322 321 318 317 317 317 316 316 315 316 315 312 311 305 302 300 299 299 299 300 300 300 301
321 321 321 321 321 321 321 321 320 320 318 317 316 316 316 315 314 313 312 311 311 309 302 299 297 297 297 296 295 296 296 299
319 318 317 317 317 317 318 318 318 317 315 313 314 314 313 309 309 309 309 309 307 305 301 297 294 295 295 296 297 293 296 299
313 313 314 314 314 315 314 314 314 312 312 312 311 310 308 308 308 308 306 305 305 303 298 294 291 291 294 294 297 294 298 301
308 309 309 310 311 310 310 309 308 308 308 309 309 308 306 306 305 304 304 306 305 302 300 296 291 292 293 293 295 294 295 295
304 305 306 306 306 306 305 305 306 307 306 306 306 306 304 304 302 301 303 303 302 302 301 296 290 288 292 292 291 291 292 293
303 303 304 304 304 304 303 303 303 303 304 305 304 304 303 301 300 300 301 300 300 300 298 296 293 287 292 292 291 289 289 289
304 303 302 302 303 303 301 302 302 303 304 303 303 303 301 301 300 299 298 299 298 296 297 295 291 288 288 291 292 287 290 289
302 301 300 301 301 301 300 300 302 302 302 302 301 299 296 293 291 290 290 292 292 293 295 293 289 287 290 290 290 291 292 289
302 301 301 302 301 301 300 301 302 301 300 299 298 295 292 290 288 286 286 287 287 288 287 285 283 285 283 288 289 289 290 289
300 299 299 299 301 301 301 302 302 301 299 296 295 294 291 289 287 285 283 283 282 284 284 281 281 282 282 283 284 285 288 288
298 297 298 298 299 300 302 302 301 298 298 296 295 291 288 287 286 284 283 281 283 281 282 281 281 280 282 287 286 285 285 287
297 296 298 299 300 300 301 301 299 296 295 296 295 291 289 287 284 282 287 287 287 287 287 285 284 287 289 289 289 289 289 289
296 296 297 297 297 296 297 297 295 294 293 292 294 293 290 287 285 282 280 283 287 287 287 287 287 287 288 289 289 289 290 288
296 296 296 296 294 293 295 296 295 292 291 293 290 290 289 289 289 287 285 282 283 284 287 286 287 289 289 289 290 289 286 287
295 295 295 295 294 293 295 294 292 291 290 289 288 288 288 289 288 287 287 287 284 283 283 286 288 290 290 290 290 286 286 285
292 291 293 293 292 292 293 292 290 290 289 292 290 288 288 287 287 286 286 286 284 283 283 282 283 286 285 285 286 286 286 285
293 292 292 292 292 294 295 291 289 289 288 288 290 288 287 287 286 286 285 285 284 283 283 284 284 284 283 284 284 284 284 284
291 290 290 291 292 292 291 290 290 289 288 287 288 286 287 287 285 285 284 284 284 284 283 285 285 284 284 284 284 284 284 284

GFSFLT2_sfc_thetae_138.txt.gz
Theta_e
331 331 331 330 328 326 325 324 323 323 322 320 318 317 316 314 313 313 312 311 307 305 303 301 300 300 299 299 300 299 299 299
327 327 327 326 324 323 322 321 321 320 319 318 316 315 314 312 311 311 311 307 302 300 299 298 298 297 297 297 297 296 296 299
324 324 322 321 321 320 320 319 319 318 317 315 314 312 311 310 309 309 309 304 301 299 297 296 295 295 296 295 295 294 295 298
321 319 319 318 318 318 317 317 317 317 315 311 310 309 309 308 308 307 305 303 299 297 294 293 292 294 295 298 297 294 297 298
316 316 315 316 316 316 314 314 314 311 309 309 308 307 307 307 307 306 304 300 297 294 292 291 289 290 294 295 297 293 293 293
312 313 313 314 314 313 312 311 309 308 307 306 306 306 305 305 304 303 302 300 297 294 292 289 287 290 294 294 293 289 289 292
309 310 309 308 309 309 308 307 307 305 304 304 304 304 303 302 301 300 300 299 297 296 292 288 286 286 293 293 290 288 289 291
303 305 306 305 306 306 304 303 303 302 302 302 303 302 301 300 299 298 297 297 296 296 291 288 290 285 291 291 290 287 286 287
304 304 302 303 304 303 301 301 300 301 302 302 301 299 296 292 290 290 295 295 295 292 290 288 286 286 285 290 291 286 286 287
301 300 300 302 302 301 300 299 301 302 301 295 292 291 291 289 287 288 288 290 294 292 288 284 283 283 288 288 289 290 290 285
301 300 300 300 300 301 298 299 300 299 294 291 288 288 287 286 285 283 285 286 285 283 282 280 281 283 282 287 288 290 291 287
301 300 300 299 300 300 299 300 298 295 292 290 287 285 284 283 283 283 282 282 281 282 281 279 280 281 282 284 285 284 288 288
299 299 299 299 300 299 300 300 297 294 293 291 288 286 284 283 283 282 283 282 282 280 279 280 280 281 282 287 287 285 286 288
297 298 298 298 299 299 299 299 297 294 291 289 287 285 284 283 283 281 287 287 288 287 287 284 283 286 289 290 290 289 289 289
294 294 294 294 294 294 294 296 297 296 292 289 288 286 284 282 281 281 281 283 288 288 287 288 288 288 289 289 289 289 288 287
294 294 293 293 293 292 293 293 292 292 291 292 289 287 285 284 283 282 281 282 281 282 286 287 288 289 289 289 289 288 285 286
294 293 293 293 292 290 292 292 290 289 289 288 287 286 286 286 286 284 284 283 281 281 282 285 287 288 288 288 288 284 283 283
291 289 290 290 290 290 292 290 289 288 289 289 288 286 285 285 285 285 283 282 281 281 281 281 282 284 282 282 283 283 283 283
291 291 290 290 290 292 291 289 288 288 287 287 288 286 285 284 284 283 283 283 281 281 281 283 283 282 281 281 281 281 281 282
289 289 288 288 289 289 290 290 288 287 286 285 285 284 284 283 282 283 282 282 282 281 281 283 283 281 281 281 281 281 281 281

GFSFLT2_sfc_thetae_141.txt.gz
Theta_e
327 326 323 324 331 333 331 330 326 325 324 323 322 321 319 317 313 311 306 303 301 301 300 299 298 298 297 297 297 297 298 298
330 327 327 332 329 327 325 323 323 323 322 319 318 316 315 312 310 305 302 300 298 297 297 296 296 296 297 297 296 296 297 300
328 328 327 325 323 322 321 320 320 319 317 315 312 312 311 309 305 302 300 299 297 296 295 294 293 294 297 296 295 296 296 297
325 322 320 319 318 317 318 317 316 314 312 310 310 310 308 306 303 300 298 296 295 294 292 291 290 293 296 298 296 292 293 294
318 317 317 317 316 316 314 312 312 310 309 309 309 308 306 304 302 299 296 294 293 291 289 289 289 290 294 294 294 289 290 291
315 315 315 315 314 311 311 310 309 308 307 307 306 305 304 303 301 298 297 294 292 289 288 287 287 290 293 293 292 287 288 290
314 313 313 311 309 309 308 308 306 305 304 304 304 304 302 301 300 298 297 295 291 288 287 286 284 284 292 292 288 286 287 287
309 309 308 308 308 307 305 303 302 301 302 302 302 302 301 300 299 297 297 295 291 289 286 285 289 283 290 291 288 285 285 286
306 306 304 305 306 305 302 301 299 300 301 299 295 294 293 295 296 297 296 293 289 287 285 283 282 284 284 291 291 285 285 285
304 302 302 303 303 301 299 298 298 295 292 290 289 289 291 292 291 293 294 289 287 283 281 280 281 281 289 290 291 291 290 285
301 300 300 301 301 300 297 294 292 290 288 287 287 287 287 288 288 288 285 283 282 281 280 279 280 282 282 289 290 291 293 286
300 299 297 297 299 299 295 292 290 287 286 285 284 284 284 285 285 284 283 281 280 280 280 280 280 281 282 284 284 284 289 287
299 298 297 297 297 296 294 293 290 287 286 285 284 284 284 283 282 282 282 280 281 280 279 280 281 281 283 288 286 284 284 287
297 297 297 297 297 295 294 293 291 288 286 285 284 283 283 283 282 281 288 287 288 287 287 285 283 286 290 290 289 289 288 288
294 294 295 296 297 296 296 294 292 289 286 285 284 284 282 281 281 282 281 283 289 289 288 289 289 289 289 289 289 288 288 286
293 293 292 292 292 291 295 295 292 289 288 289 284 282 282 281 281 280 281 281 281 281 286 288 289 288 288 288 288 287 283 284
292 291 291 290 289 288 293 294 291 290 288 287 286 284 283 283 282 282 281 280 280 280 282 285 286 287 287 287 287 282 281 280
289 287 289 289 288 289 291 290 289 288 288 289 287 285 285 284 283 282 280 280 280 280 280 280 281 282 280 280 281 280 280 280
289 288 288 288 287 290 291 290 288 287 286 285 287 284 284 284 283 281 280 280 280 280 280 281 281 280 278 278 279 279 279 279
288 287 287 288 289 289 288 287 286 286 285 284 284 283 282 283 282 282 281 281 280 280 280 281 281 279 279 279 279 279 279 279

GFSFLT2_sfc_thetae_144.txt.gz
Theta_e
301 315 322 321 322 325 331 335 329 327 327 325 323 321 317 313 310 308 306 303 302 301 301 300 299 300 300 300 300 301 303 303
316 320 320 321 325 329 332 326 326 325 324 322 319 315 312 308 305 304 301 300 298 297 297 297 298 299 299 299 300 301 301 302
320 320 320 326 329 327 325 324 323 323 319 316 311 309 306 304 301 300 299 298 297 296 295 295 296 297 299 297 298 298 298 299
322 322 327 325 322 321 321 320 320 317 314 311 309 306 303 301 300 298 297 295 293 293 292 292 293 294 296 297 295 295 296 297
323 322 321 319 319 319 317 315 314 313 310 309 306 304 302 300 298 296 294 292 291 290 290 291 291 293 294 295 294 294 295 296
318 317 317 317 316 314 313 313 311 309 308 307 306 304 301 299 296 294 292 290 288 288 288 289 289 292 293 293 292 292 292 293
315 315 312 312 311 311 310 309 310 307 306 306 305 303 300 298 295 292 291 288 288 288 288 287 287 288 292 292 290 291 291 291
309 309 308 308 308 309 308 307 307 306 305 304 303 302 300 297 295 293 290 289 288 287 286 286 289 287 292 292 290 290 290 289
308 308 305 305 307 305 303 302 300 301 300 300 300 300 298 297 295 293 290 288 287 286 285 285 286 290 291 292 291 290 288 289
305 304 303 304 305 302 297 294 297 297 295 294 296 298 298 297 294 290 289 286 285 285 285 285 286 286 292 291 292 291 290 289
304 302 301 301 300 298 293 292 292 291 290 290 290 292 294 294 291 287 285 285 285 284 285 285 285 286 288 290 291 291 292 290
301 300 296 293 293 292 290 290 290 288 287 287 288 288 287 288 287 286 285 284 284 285 285 285 286 287 288 288 288 289 289 289
297 294 292 290 290 289 289 289 288 286 286 286 286 286 285 285 285 285 284 284 285 284 284 286 287 286 288 289 288 288 288 288
295 293 292 291 290 288 288 288 287 286 285 285 285 285 286 286 285 285 289 288 288 287 287 287 287 288 289 289 289 288 288 287
296 294 293 292 290 289 289 289 288 286 284 285 285 286 285 284 285 285 284 287 289 289 289 289 289 289 289 288 288 287 287 286
295 295 294 293 292 290 291 290 289 287 286 288 285 285 285 284 284 284 285 286 285 286 288 288 288 288 288 287 287 286 285 285
292 292 292 293 293 292 292 291 289 287 286 285 285 284 284 285 285 284 284 285 285 285 286 286 286 286 286 286 285 285 284 283
290 288 290 290 290 291 292 291 289 288 288 287 286 286 286 285 284 284 284 284 284 285 285 284 285 285 284 283 284 284 284 283
288 287 288 289 289 292 291 291 290 289 289 288 288 287 286 286 284 284 284 284 284 284 284 283 280 284 283 283 283 283 283 283
288 287 287 288 289 290 290 289 289 288 287 287 288 287 286 285 284 284 284 284 285 284 284 283 280 283 283 283 283 283 283 283

GFSFLT2_sfc_thetae_147.txt.gz
Theta_e
309 311 321 325 330 334 335 337 335 331 329 327 327 325 324 321 319 315 310 312 312 309 310 309 309 309 309 310 310 311 311 311
316 313 323 327 330 331 335 331 331 328 327 324 320 317 317 317 315 309 309 311 309 308 308 307 307 307 308 309 309 308 309 310
319 319 325 327 329 332 329 328 327 325 322 318 311 309 310 308 305 304 304 305 305 304 304 304 304 305 304 306 306 307 307 307
320 323 326 328 331 326 326 324 323 320 312 308 308 306 305 303 302 300 301 302 302 301 301 301 300 299 297 299 305 306 306 305
321 323 327 328 324 324 322 320 317 312 309 307 306 304 303 302 300 298 299 300 300 299 298 299 299 298 295 296 300 303 302 302
323 324 323 322 322 319 317 316 312 310 307 306 306 303 302 301 299 298 298 297 297 296 297 298 298 295 293 294 297 301 300 300
320 320 318 317 316 315 313 311 309 307 305 305 304 305 303 300 297 296 296 294 294 295 296 297 297 296 292 293 298 299 298 297
313 314 313 311 311 311 309 308 307 306 305 305 305 303 301 297 296 295 295 295 295 295 295 297 296 296 292 292 297 297 296 295
311 311 309 308 309 309 307 306 305 305 305 304 303 301 298 296 295 294 294 294 294 295 294 296 297 297 295 292 293 296 295 293
306 304 304 306 306 306 304 303 305 307 305 302 301 300 297 295 294 294 294 294 294 294 294 294 296 296 294 292 291 292 294 294
303 301 300 302 303 303 301 301 304 304 303 301 300 298 296 295 293 293 293 294 293 293 292 292 293 294 294 292 291 291 292 292
299 298 297 295 300 300 300 301 301 300 299 299 299 297 295 294 293 293 293 293 292 292 292 292 293 293 294 295 295 294 292 292
297 293 293 294 296 297 298 300 300 298 298 297 296 295 293 292 292 292 292 293 293 292 293 293 293 292 291 290 291 292 292 289
294 295 293 293 293 294 295 297 298 298 297 297 295 292 292 292 291 290 289 289 289 288 289 292 292 290 289 289 288 287 287 287
293 292 291 292 292 293 295 297 297 295 294 294 292 292 292 292 292 291 290 290 290 289 289 289 289 289 288 288 287 286 286 288
292 291 292 291 291 291 293 294 294 294 293 291 292 292 292 292 292 292 292 291 290 290 288 289 288 288 287 287 288 289 289 289
294 294 293 292 291 290 293 293 293 292 292 291 292 292 292 292 293 293 292 292 291 291 290 289 288 287 286 287 288 290 289 288
296 295 294 294 293 294 294 293 293 293 292 290 291 292 292 293 293 293 292 292 291 291 290 290 291 290 289 289 290 290 289 288
297 296 296 296 295 296 295 295 294 293 293 293 290 293 293 293 293 292 292 292 291 290 289 287 282 290 288 288 289 289 289 288
296 296 296 297 297 297 297 297 296 295 294 293 293 292 293 292 293 293 292 292 291 290 289 287 283 290 289 288 289 289 289 289